TimeMST,TemperatureF,Dew PointF,Humidity,Sea Level PressureIn,VisibilityMPH,Wind Direction,Wind SpeedMPH,Gust SpeedMPH,PrecipitationIn,Events,Conditions,WindDirDegrees,DateUTC
12:15 AM,33.8,32.0,93,29.76,3.0,Calm,Calm,-,N/A,,Overcast,0,2013-03-07 07:15:00
12:27 AM,33.8,30.2,87,29.77,4.0,Calm,Calm,-,N/A,,Overcast,0,2013-03-07 07:27:00
12:36 AM,33.8,32.0,93,29.77,5.0,Calm,Calm,-,N/A,,Overcast,0,2013-03-07 07:36:00
12:55 AM,33.1,32.0,96,29.85,5.0,South,4.6,-,N/A,,Overcast,180,2013-03-07 07:55:00
1:47 AM,33.8,32.0,93,29.80,10.0,South,10.4,-,0.00,,Overcast,170,2013-03-07 08:47:00
1:55 AM,34.0,32.0,92,29.87,10.0,SSE,10.4,-,0.00,,Overcast,160,2013-03-07 08:55:00
2:55 AM,34.0,32.0,92,29.89,10.0,SE,6.9,-,0.00,,Overcast,140,2013-03-07 09:55:00
3:55 AM,35.1,32.0,89,29.91,10.0,SSE,9.2,-,N/A,,Overcast,150,2013-03-07 10:55:00
4:55 AM,35.1,32.0,89,29.94,10.0,SSE,9.2,-,N/A,,Overcast,150,2013-03-07 11:55:00
5:55 AM,35.1,32.0,89,29.95,10.0,South,4.6,-,N/A,,Overcast,180,2013-03-07 12:55:00
6:55 AM,34.0,30.9,89,29.97,10.0,SSE,6.9,-,N/A,,Overcast,160,2013-03-07 13:55:00
7:55 AM,34.0,30.0,85,30.00,10.0,South,8.1,-,N/A,,Overcast,170,2013-03-07 14:55:00
8:55 AM,36.0,30.9,82,30.01,10.0,South,8.1,-,N/A,,Overcast,190,2013-03-07 15:55:00
9:55 AM,37.0,32.0,82,30.03,10.0,South,9.2,-,N/A,,Overcast,180,2013-03-07 16:55:00
10:55 AM,39.9,32.0,73,30.04,10.0,SSE,11.5,-,N/A,,Overcast,160,2013-03-07 17:55:00
11:55 AM,41.0,30.0,65,30.04,10.0,WSW,4.6,-,N/A,,Overcast,240,2013-03-07 18:55:00
12:55 PM,43.0,28.0,56,30.04,10.0,South,11.5,-,N/A,,Overcast,190,2013-03-07 19:55:00
1:55 PM,45.0,28.0,52,30.02,10.0,SSW,11.5,-,N/A,,Overcast,200,2013-03-07 20:55:00
2:55 PM,44.1,28.0,53,30.03,10.0,SSW,11.5,-,N/A,,Overcast,210,2013-03-07 21:55:00
3:15 PM,46.4,28.4,50,29.98,10.0,West,8.1,-,0.00,,Overcast,260,2013-03-07 22:15:00
3:55 PM,46.0,26.1,46,30.02,10.0,SW,9.2,-,0.00,,Partly Cloudy,230,2013-03-07 22:55:00
4:55 PM,46.0,24.1,42,30.03,10.0,WSW,11.5,20.7,N/A,,Mostly Cloudy,240,2013-03-07 23:55:00
5:55 PM,43.0,25.0,49,30.04,10.0,WSW,5.8,-,N/A,,Overcast,250,2013-03-08 00:55:00
6:55 PM,37.9,30.0,73,30.07,10.0,Calm,Calm,-,N/A,,Overcast,0,2013-03-08 01:55:00
7:55 PM,37.0,30.0,76,30.09,10.0,Calm,Calm,-,N/A,,Overcast,0,2013-03-08 02:55:00
8:55 PM,35.1,30.0,82,30.09,10.0,Calm,Calm,-,N/A,,Overcast,0,2013-03-08 03:55:00
9:55 PM,30.9,28.0,89,30.10,10.0,Calm,Calm,-,N/A,,Overcast,0,2013-03-08 04:55:00
10:55 PM,30.0,28.0,92,30.10,10.0,Calm,Calm,-,N/A,,Overcast,0,2013-03-08 05:55:00
11:55 PM,28.9,28.0,96,30.09,10.0,West,3.5,-,N/A,,Overcast,270,2013-03-08 06:55:00